Tracking 35237 objects as of 5-Sep-2026
HD Live streaming from Space Station
objects crossing your sky now

STARLINK-5580

Track STARLINK-5580 now!
10-day predictions
STARLINK-5580 is classified as:


NORAD ID: 55748
Int'l Code: 2023-028H
Launch date: March 3, 2023
Source: United States (US)
Launch site: AIR FORCE WESTERN TEST RANGE (AFWTR)
Your satellite tracking list
Your tracking list is empty




NASA's NSSDC Master Catalog

Two Line Element Set (TLE):
1 55748U 23028H   26247.70312236 -.00004880  00000-0 -40142-3 0  9995
2 55748  69.9981 153.1375 0003109 251.9961 108.0860 14.98330907192856
Source of the keplerian elements: AFSPC